Location: Boltonville
(43.5274°N, 88.1004°W)
Time: 10:43:40
(UTC+00:00)

ACS3 Solar Sail - Visible Passes

Search period start: 11 June 2026 00:00
Search period end: 21 June 2026 00:00
Orbit: 873 x 957 km, 97.2° (Epoch: 10 June)

Date Brightness Start Highest point End Pass type
(mag) Time Alt. Az. Time Alt. Az. Time Alt. Az.
11 Jun 3.6 04:49:11 10° NE 04:52:04 14° E 04:53:20 13° E visible
11 Jun 1.6 06:29:14 10° N 06:34:58 84° WNW 06:36:41 48° SSW visible
11 Jun 3.7 08:13:39 10° NNW 08:16:20 14° WNW 08:19:02 10° W visible
12 Jun 3.4 04:55:39 10° NE 04:59:12 17° E 05:00:27 16° ESE visible
12 Jun 1.7 06:36:15 10° N 06:41:58 73° WNW 06:43:48 45° SSW visible
12 Jun 3.8 08:21:17 10° NW 08:23:12 12° WNW 08:25:09 10° WNW visible
13 Jun 3.3 05:02:15 10° NE 05:06:18 19° E 05:07:33 18° ESE visible
13 Jun 1.8 06:43:17 10° N 06:48:56 63° WNW 06:50:55 40° SW visible
13 Jun 4.0 08:29:51 10° NW 08:30:04 10° NW 08:30:16 10° WNW visible
14 Jun 3.1 05:08:55 10° NE 05:13:22 23° E 05:14:38 21° ESE visible
14 Jun 2.0 06:50:19 10° N 06:55:54 55° WNW 06:58:00 36° SW visible
15 Jun 2.9 05:15:39 10° NE 05:20:25 26° E 05:21:42 24° ESE visible
15 Jun 2.2 06:57:21 10° N 07:02:50 48° WNW 07:05:04 32° WSW visible
16 Jun 2.7 05:22:25 10° NNE 05:27:26 30° E 05:28:46 28° ESE visible
16 Jun 2.4 07:04:22 10° N 07:09:44 41° WNW 07:12:07 28° WSW visible
17 Jun 2.5 05:29:11 10° NNE 05:34:27 35° E 05:35:48 31° ESE visible
17 Jun 2.6 07:11:25 10° N 07:16:37 36° WNW 07:19:10 25° WSW visible
18 Jun 2.3 05:35:59 10° NNE 05:41:25 41° E 05:42:50 35° SE visible
18 Jun 2.8 07:18:28 10° N 07:23:29 32° WNW 07:26:11 22° WSW visible
19 Jun 2.2 05:42:47 10° NNE 05:48:23 47° E 05:49:50 39° SE visible
19 Jun 3.0 07:25:32 10° N 07:30:20 28° WNW 07:33:12 19° WSW visible
20 Jun 2.0 05:49:37 10° NNE 05:55:19 54° E 05:56:50 43° SE visible
20 Jun 3.2 07:32:36 10° NNW 07:37:09 24° WNW 07:40:11 16° WSW visible
